Regional Weather Roundup
Issued by NWS

Home | Current Version | Previous Version | Text Only | Print | Product List | Glossary On
Versions: 1 2 3 4 5 6 7 8 9 10 11 12 13 14 15 16 17 18 19 20 21 22 23 24 25 26 27 28 29 30 31 32 33 34 35 36 37 38 39 40 41 42 43 44 45 46 47 48 49 50
000
ASUS45 KTFX 200619
RWRMT
MONTANA HOURLY WEATHER ROUNDUP
NATIONAL WEATHER SERVICE GREAT FALLS MT
1219 AM MDT SAT SEP 20 2014

NOTE: "FAIR" INDICATES FEW OR NO CLOUDS BELOW 12000 FEET WITH NO
SIGNIFICANT WEATHER AND/OR OBSTRUCTIONS TO VISIBILITY.

* THESE STATIONS ARE NOT UNDER NWS QUALITY CONTROL. THEY DO NOT
   REPORT WEATHER SUCH AS PRECIPITATION OR FOG.

MTZ001>007-043-200700-
WEST OF THE DIVIDE
CITY           SKY/WX    TMP DP  RH WIND       PRES   REMARKS
KALISPELL      MOCLDY    48  45  89 CALM      30.12R
MISSOULA       MOCLDY    55  45  69 SE5       30.16R
BUTTE          MOCLDY    46  39  77 NW8       30.22R
MULLAN PASS    PTCLDY    48  43  83 VRB3      30.24R
* ESSEX        N/A       54  46  74 S1         N/A
* LINCOLN      N/A       52  41  66 SE2G9      N/A
* LOOKOUT PASS N/A       50  44  80 N/A        N/A
* POLSON       N/A       54  44  69 SE2        N/A
* RONAN APT    PTCLDY    46  41  83 N/A        N/A
* SEELEY LAKE  N/A       43  39  86 N2         N/A
* THOMP F APT  MOCLDY    56  38  51 NE3G11     N/A
$$

MTZ008-052>055-200700-
SOUTHWEST MONTANA
CITY           SKY/WX    TMP DP  RH WIND       PRES   REMARKS
BOZEMAN        CLEAR     50  43  77 S7        30.15R
DILLON         MOCLDY    54  41  62 CALM      30.18R
W YELLOWSTONE  CLEAR     43  41  93 CALM      30.25R
* THREE FORKS  CLEAR     52  52 100 N/A        N/A
* BOULDER HILL N/A       53  36  53 S6         N/A
* MONIDA PASS  N/A       49  40  71 W7         N/A
* RAYNOLDS PAS N/A       49  35  59 S2         N/A
* WHITEHALL    N/A       58  42  55 NW8        N/A
* WISE RIVER   N/A       48  39  71 N2G11      N/A
$$

MTZ009>010-012-014-046-048-049-054-200700-
EAST SLOPES AND CENTRAL MONTANA
CITY           SKY/WX    TMP DP  RH WIND       PRES   REMARKS
CUT BANK       CLEAR     55  41  59 W8        30.02R
GREAT FALLS    CLEAR     54  43  67 SW9       30.05R
HELENA         PTCLDY    61  43  52 CALM      30.13R
MALMSTROM AFB  CLEAR     52  43  72 SW10      30.06R
* CONRAD       PTCLDY    46  41  83 N/A        N/A
* EAST GLACIER N/A       58  39  49 W19G27     N/A
* MONARCH      N/A       52  36  55 SW9        N/A
* PENDROY      N/A       55  41  59 SW4        N/A
* ROGERS PASS  N/A       54  40  59 SE11G23    N/A
* SAINT MARY   N/A       59  41  51 S9G24      N/A
* SWEET GRASS  N/A       57  39  51 NW19       N/A
* WHITE SULPH  N/A       53  39  59 N3G9       N/A
$$

MTZ011-013-016-021-035-040-045-047-050-051-200700-
NORTH CENTRAL MONTANA
CITY           SKY/WX    TMP DP  RH WIND       PRES   REMARKS
HAVRE          CLEAR     55  45  69 SW14      29.94R
LEWISTOWN      CLEAR     52  43  72 SW9       30.06R
* CHINOOK      CLEAR     55  45  69 W6        29.92R
* FORT BENTON  PTCLDY    57  43  60 SW7       30.02R
* CHESTER      N/A       60  41  50 W11G16     N/A
* DENTON       N/A       60  45  58 W16        N/A
* GEYSER       N/A       49  42  77 SE4        N/A
* JUDITH GAP   N/A       52  41  66 NW12       N/A
* LOMA         N/A       58  43  58 W17        N/A
$$

MTZ017>020-022>027-061-062-200700-
NORTHEAST MONTANA
CITY           SKY/WX    TMP DP  RH WIND       PRES   REMARKS
GLASGOW        MOCLDY    57  50  78 S6        29.87R
GLENDIVE       PTCLDY    55  46  72 NW8       29.91R
JORDAN         CLEAR     52  46  80 NW5       29.93R
SIDNEY         CLEAR     50  46  86 S3        29.88R
WOLF POINT     PTCLDY    55  50  83 SW5       29.88R
* BEAVER HILL  N/A       58  46  65 SW10       N/A
* CIRCLE       N/A       56  49  77 N/A        N/A
* LINDSAY DVD  N/A       58  46  65 NW6        N/A
* NAVAJO       N/A       57  49  75 W10        N/A
* SACO         N/A       57  50  78 SE5        N/A
$$

MTZ028>042-056>058-200700-
SOUTHCENTRAL AND SOUTHEAST MONTANA
CITY           SKY/WX    TMP DP  RH WIND       PRES   REMARKS
BAKER          CLEAR     55  45  69 W7        29.94R
BILLINGS       CLEAR     61  45  56 NW10      30.05R
LIVINGSTON     CLEAR     55  41  59 W7        30.12R
MILES CITY     CLEAR     63  46  54 W8        29.93F
* LAUREL APT   CLEAR     61  41  48 NW6        N/A
* ROUNDUP APT  CLEAR     59  43  56 N/A        N/A
* ALZADA       N/A       58  47  67 W1         N/A
* HYSHAM       N/A       61  42  50 W4         N/A
* LAME DEER    N/A       61  45  56 W6         N/A
* REED POINT   N/A       58  41  53 W5         N/A
* ROSCOE HILL  N/A       55  36  49 S4         N/A
$$

REGIONAL REPORTS...DAKOTAS
CITY           SKY/WX    TMP DP  RH WIND       PRES   REMARKS
WILLISTON      CLEAR     52  46  80 NW3       29.85R
DICKINSON      CLEAR     54  46  74 W6        29.86S
BEACH          N/A       57  48  72 W12       29.91R
CROSBY         CLEAR     48  48 100 S8        29.84R
TIOGA          CLEAR     48  48 100 W6        29.87R
WATFORD CITY   CLEAR     50  46  86 SW3       29.84R
BISMARCK       CLEAR     59  52  78 NW5       29.83R
GRAND FORKS    CLOUDY    61  54  78 NW12      29.71R
FARGO          PTCLDY    61  55  81 NW12      29.70R
BUFFALO SD     CLEAR     55  46  72 W10       29.89R
RAPID CITY     MOCLDY    64  48  56 NW10      29.99R
$$

REGIONAL REPORTS...WYOMING/IDAHO/WASHINGTON
CITY           SKY/WX    TMP DP  RH WIND       PRES   REMARKS
GILLETTE       PTCLDY    54  46  74 S3        30.07R
SHERIDAN       CLEAR     55  46  72 S3        30.06R
CODY           PTCLDY   N/A N/A N/A N/A        N/A
YELLOWSTONE LA CLEAR     43  39  86 CALM      30.33R
SALMON         PTCLDY    54  43  67 SE6       30.14R
MULLAN PASS    PTCLDY    48  43  83 VRB3      30.24S
SAND POINT     PTCLDY    52  52 100 CALM      30.09R
SPOKANE        FAIR      61  46  58 S3        30.09R
$$

REGIONAL REPORTS...ALBERTA
CITY           SKY/WX    TMP DP  RH WIND       PRES   REMARKS
CALGARY        FAIR      57  34  42 SW3       29.97R
LETHBRIDGE     CLEAR     63  43  48 W22G31    29.98R
MEDICINE HAT   CLEAR     63  45  52 W15G21    29.88R
EDMONTON       N/A       48  37  66 W7        29.90R
WATERTON GATE  N/A       59  39  48 SW15G23    N/A
CARDSTON       N/A       57  43  60 W10        N/A
MILK RIVER     N/A       55  41  59 W13        N/A
$$

REGIONAL REPORTS...SASKATCHEWAN
CITY           SKY/WX    TMP DP  RH WIND       PRES   REMARKS
SWIFT CURRENT  MOCLDY    57  46  67 N21G33    29.84R
REGINA         N/A       50  48  93 VRB2      29.78F
VAL MARIE      N/A       48  45  89 S3         N/A
ASSINIBOIA     N/A       52  46  80 S9         N/A
CORONACH       N/A       45  43  93 W1         N/A

$$




USA.gov is the U.S. government's official web portal to all federal, state and local government web resources and services.